| time (UTC) | temp C | wind direction | speed KPH | gust KPH | rain 1hr cm | rain 24hr cm | rain mn cm | humidity % | barometer mb |
| 20260504214558 | 23 | 13 | 8.0 | 20.9 | 0.00 | 0.00 | 0.00 | 29 | 1008.9 |
| 20260504212046 | 23 | 333 | 4.8 | 22.5 | 0.00 | 0.00 | 0.00 | 29 | 1009.2 |
| 20260504210846 | 22 | 343 | 8.0 | 24.1 | 0.00 | 0.00 | 0.00 | 32 | 1009.2 |
| 20260504205716 | 23 | 343 | 4.8 | 24.1 | 0.00 | 0.00 | 0.00 | 30 | 1009.3 |
| 20260504204501 | 22 | 349 | 4.8 | 24.1 | 0.00 | 0.00 | 0.00 | 31 | 1009.3 |
| 20260504201921 | 22 | 355 | 6.4 | 20.9 | 0.00 | 0.00 | 0.00 | 34 | 1009.3 |
| 20260504200749 | 22 | 0 | 4.8 | 25.7 | 0.00 | 0.00 | 0.00 | 34 | 1009.4 |
| 20260504195620 | 22 | 5 | 11.3 | 25.7 | 0.00 | 0.00 | 0.00 | 35 | 1009.4 |
| 20260504194441 | 21 | 348 | 9.7 | 19.3 | 0.00 | 0.00 | 0.00 | 35 | 1009.4 |
| 20260504191910 | 21 | 5 | 3.2 | 19.3 | 0.00 | 0.00 | 0.00 | 36 | 1009.6 |
| 20260504185431 | 21 | 9 | 6.4 | 22.5 | 0.00 | 0.00 | 0.00 | 38 | 1009.7 |
| 20260504184223 | 21 | 5 | 6.4 | 22.5 | 0.00 | 0.00 | 0.00 | 39 | 1009.8 |
| 20260504183017 | 21 | 351 | 3.2 | 20.9 | 0.00 | 0.00 | 0.00 | 39 | 1010.0 |
| 20260504181748 | 20 | 15 | 4.8 | 20.9 | 0.00 | 0.00 | 0.00 | 38 | 1010.0 |
| 20260504180608 | 20 | 13 | 8.0 | 20.9 | 0.00 | 0.00 | 0.00 | 40 | 1010.0 |
| 20260504175429 | 20 | 19 | 6.4 | 20.9 | 0.00 | 0.00 | 0.00 | 41 | 1010.0 |
| 20260504174154 | 20 | 19 | 6.4 | 20.9 | 0.00 | 0.00 | 0.00 | 41 | 1009.9 |
| 20260504171649 | 18 | 29 | 6.4 | 22.5 | 0.00 | 0.00 | 0.00 | 42 | 1010.1 |
| 20260504170456 | 18 | 5 | 3.2 | 24.1 | 0.00 | 0.00 | 0.00 | 44 | 1010.1 |
| 20260504160318 | 16 | 39 | 6.4 | 24.1 | 0.00 | 0.00 | 0.00 | 52 | 1010.2 |
| 20260504150247 | 13 | 132 | 0.0 | 0.0 | 0.00 | 0.00 | 0.00 | 62 | 1010.4 |
| 20260504141327 | 11 | 123 | 0.0 | 0.0 | 0.00 | 0.00 | 0.00 | 77 | 1010.3 |
| 20260504140157 | 10 | 118 | 0.0 | 0.0 | 0.00 | 0.00 | 0.00 | 77 | 1010.2 |
| 20260504130106 | 9 | 112 | 0.0 | 0.0 | 0.00 | 0.00 | 0.00 | 80 | 1009.7 |
| 20260504044744 | 17 | 146 | 0.0 | 0.0 | 0.00 | 0.00 | 0.00 | 47 | 1009.5 |
| 20260504043530 | 18 | 144 | 0.0 | 9.7 | 0.00 | 0.00 | 0.00 | 45 | 1009.5 |
| 20260504042341 | 18 | 136 | 0.0 | 8.0 | 0.00 | 0.00 | 0.00 | 43 | 1009.4 |
| 20260504041145 | 19 | 142 | 0.0 | 8.0 | 0.00 | 0.00 | 0.00 | 39 | 1009.4 |
| 20260504035919 | 20 | 121 | 0.0 | 0.0 | 0.00 | 0.00 | 0.00 | 38 | 1009.4 |
| 20260504034651 | 20 | 132 | 0.0 | 0.0 | 0.00 | 0.00 | 0.00 | 34 | 1009.3 |
| 20260504033511 | 21 | 132 | 0.0 | 0.0 | 0.00 | 0.00 | 0.00 | 32 | 1009.2 |
| 20260504032319 | 21 | 140 | 0.0 | 0.0 | 0.00 | 0.00 | 0.00 | 30 | 1009.1 |
| 20260504031142 | 22 | 252 | 0.0 | 0.0 | 0.00 | 0.00 | 0.00 | 32 | 1009.0 |
| 20260504025908 | 22 | 252 | 0.0 | 0.0 | 0.00 | 0.00 | 0.00 | 33 | 1009.0 |
| 20260504024641 | 23 | 252 | 0.0 | 0.0 | 0.00 | 0.00 | 0.00 | 29 | 1009.0 |
| 20260504023404 | 24 | 250 | 0.0 | 0.0 | 0.00 | 0.00 | 0.00 | 28 | 1009.0 |
| 20260504022128 | 24 | 263 | 0.0 | 0.0 | 0.00 | 0.00 | 0.00 | 27 | 1009.1 |
| 20260504020905 | 25 | 260 | 0.0 | 0.0 | 0.00 | 0.00 | 0.00 | 26 | 1009.2 |
| 20260504015625 | 25 | 279 | 0.0 | 0.0 | 0.00 | 0.00 | 0.00 | 25 | 1009.3 |
| 20260504014433 | 25 | 281 | 0.0 | 0.0 | 0.00 | 0.00 | 0.00 | 25 | 1009.4 |
| 20260504011859 | 25 | 267 | 0.0 | 0.0 | 0.00 | 0.00 | 0.00 | 25 | 1009.5 |
| 20260504005311 | 25 | 224 | 0.0 | 0.0 | 0.00 | 0.00 | 0.00 | 24 | 1009.7 |
| 20260504004053 | 25 | 237 | 0.0 | 0.0 | 0.00 | 0.00 | 0.00 | 24 | 1009.9 |
| 20260504002903 | 25 | 236 | 1.6 | 0.0 | 0.00 | 0.00 | 0.00 | 22 | 1010.0 |
| 20260504001719 | 25 | 199 | 1.6 | 16.1 | 0.00 | 0.00 | 0.00 | 24 | 1010.1 |
| 20260504000532 | 25 | 215 | 1.6 | 4.8 | 0.00 | 0.00 | 0.00 | 22 | 1010.2 |
| 20260503235253 | 25 | 214 | 0.0 | 16.1 | 0.00 | 0.00 | 0.00 | 22 | 1010.4 |
| 20260503234016 | 24 | 229 | 1.6 | 14.5 | 0.00 | 0.00 | 0.00 | 21 | 1010.5 |
| 20260503232758 | 24 | 213 | 0.0 | 11.3 | 0.00 | 0.00 | 0.00 | 24 | 1010.6 |
| 20260503231618 | 24 | 244 | 0.0 | 0.0 | 0.00 | 0.00 | 0.00 | 23 | 1010.9 |
| 20260503230436 | 24 | 203 | 0.0 | 14.5 | 0.00 | 0.00 | 0.00 | 24 | 1011.0 |
| 20260503223924 | 24 | 305 | 0.0 | 0.0 | 0.00 | 0.00 | 0.00 | 23 | 1011.4 |
| 20260503222722 | 24 | 257 | 0.0 | 4.8 | 0.00 | 0.00 | 0.00 | 23 | 1011.6 |
| 20260503221532 | 23 | 273 | 0.0 | 0.0 | 0.00 | 0.00 | 0.00 | 25 | 1011.6 |
| 20260503220317 | 23 | 216 | 1.6 | 17.7 | 0.00 | 0.00 | 0.00 | 25 | 1011.8 |